Find Starlink 36980

NORAD ID: 68146 Int'l Des: 2026-049 Owner: SPXS Country: US Constellation: starlink operational
LEOCIRCULARRETROGRADE

現在のビュー

3D地球を読み込み中...

About Starlink 36980

Starlink 36980 (NORAD 68146) is a starlink constellation satellite (v2 mini) launched Mar 13, 2026 by SPXS of US. It operates in LEO, CIRCULAR, RETROGRADE orbit with a mass of 575.00 kg.

Starlink 36980について

説明を読み込み中...

次回通過

Passes for default location (London). Set your location on the main map for personalized predictions.

高度履歴

Loading altitude history...

軌道要素

1 68146U 26049E 26164.62809856 .00018366 00000-0 56992-3 0 9997
2 68146 97.2826 186.0642 0001248 99.8893 260.2491 15.33440291 14358
Epoch: Jun 13, 2026 • Age: 13 hours

現在のステータス

高度 469.7 km
速度 7.63 km/s
衛星直下点 35.02°N, 45.75°E
打ち上げ日 Mar 13, 2026
運用期間 0.2 years
タイプ internet

技術仕様

分類 Payload
質量 575.00 kg
乾燥質量 530.00 kg
総質量 575.00 kg
長さ 0.30 m
直径 4.10 m
スパン 29.00 m
形状 Box + pan
製造者 SPXS
バスタイプ Starlink V2MO
フェーズステータス In Orbit
所有者/国 SPXS/US

Most Searched